Location: Hains Lake
(37.8540°N, 99.8578°W)
Time: 04:54:42
(UTC+00:00)

Vanguard 2 Rocket - Pass Details

Date: 18 April 2021
Orbit: 553 x 3326 km, 32.9° (Epoch: 07 May)

Event Time Altitude Azimuth Distance (km) Brightness Sun altitude
Rises 16:12:14 0° 170° (S) 5,787 11.4 47.7°
Reaches altitude 10° 16:20:42 10° 141° (SE) 5,491 11.7 49.1°
Maximum altitude 16:25:02 11° 126° (SE) 5,649 11.9 49.9°
Drops below altitude 10° 16:29:41 10° 111° (ESE) 6,008 11.9 50.6°
Sets 16:40:30 0° 85° (E) 7,309 11.9 52.4°
